CW3442 Weather Reports


Display with metric or nautical units.
time (UTC)temp
F
wind
direction
speed
MPH
gust
MPH
rain 1hr
in
rain 24hr
in
rain mn
in
humidity
%
barometer
mb
20260831203530 75 197 0.0 0.0 0.00 0.00 0.00 54 1013.8
20260831200527 75 184 0.0 0.0 0.00 0.00 0.00 53 1013.9
20260831193526 75 113 0.0 0.0 0.00 0.00 0.00 54 1014.4
20260831190528 76 186 0.0 0.0 0.00 0.00 0.00 57 1014.8
20260831183528 76 196 0.0 0.0 0.00 0.00 0.00 55 1015.0
20260831180526 76 109 0.0 0.0 0.00 0.00 0.00 55 1015.3
20260831173538 75 63 0.0 0.0 0.00 0.00 0.00 55 1015.8
20260831170528 75 49 0.0 0.0 0.00 0.00 0.00 56 1015.9
20260831163551 75 196 0.0 0.0 0.00 0.00 0.00 59 1016.1
20260831160548 74 74 0.0 0.0 0.00 0.00 0.00 55 1016.3
20260831153550 72 162 0.0 0.0 0.00 0.00 0.00 63 1016.6
20260831150533 70 121 0.0 0.0 0.00 0.00 0.00 70 1016.4
20260831143603 69 86 0.0 0.0 0.00 0.00 0.00 73 1016.7
20260831140527 67 77 0.0 0.0 0.00 0.00 0.00 76 1016.8
20260831133527 64 145 0.0 0.0 0.00 0.00 0.00 83 1017.0
20260831130601 60 188 0.0 0.0 0.00 0.00 0.00 93 1017.2
20260831123540 56 213 0.0 0.0 0.00 0.00 0.00 95 1017.4
20260831120533 54 213 0.0 0.0 0.00 0.00 0.00 95 1017.3
20260831113533 52 213 0.0 0.0 0.00 0.00 0.00 95 1017.1
20260831110527 51 213 0.0 0.0 0.00 0.00 0.00 95 1016.6
20260831103537 50 213 0.0 0.0 0.00 0.00 0.00 95 1016.1
20260831100527 51 213 0.0 0.0 0.00 0.00 0.00 94 1015.9
20260831093540 51 213 0.0 0.0 0.00 0.00 0.00 95 1015.9
20260831090538 52 213 0.0 0.0 0.00 0.00 0.00 95 1016.0
20260831083526 52 213 0.0 0.0 0.00 0.00 0.00 94 1015.9
20260831080524 53 213 0.0 0.0 0.00 0.00 0.00 94 1015.8
20260831073539 53 213 0.0 0.0 0.00 0.00 0.00 94 1015.7
20260831070538 53 213 0.0 0.0 0.00 0.00 0.00 94 1015.6
20260831063528 54 213 0.0 0.0 0.00 0.00 0.00 94 1015.7
20260831060524 54 213 0.0 0.0 0.00 0.00 0.00 94 1015.7
20260831053558 55 213 0.0 0.0 0.00 0.00 0.00 93 1015.7
20260831050530 55 213 0.0 0.0 0.00 0.00 0.00 94 1015.7
20260831043531 55 213 0.0 0.0 0.00 0.00 0.00 93 1015.4
20260831040527 56 213 0.0 0.0 0.00 0.00 0.00 93 1015.2
20260831033542 57 213 0.0 0.0 0.00 0.00 0.00 93 1015.1
20260831030526 57 213 0.0 0.0 0.00 0.00 0.00 93 1014.8
20260831023539 58 213 0.0 0.0 0.00 0.00 0.00 92 1014.6
20260831020529 58 213 0.0 0.0 0.00 0.00 0.00 92 1014.3
20260831013545 59 213 0.0 0.0 0.00 0.00 0.00 92 1013.9
20260831010535 60 213 0.0 0.0 0.00 0.00 0.00 92 1013.5
20260831003530 61 213 0.0 0.0 0.00 0.00 0.00 91 1013.1
20260831000537 62 213 0.0 0.0 0.00 0.00 0.00 91 1012.2
20260830233534 63 213 0.0 0.0 0.00 0.00 0.00 90 1012.0
20260830230530 64 213 0.0 0.0 0.00 0.00 0.00 89 1011.8
20260830223523 64 213 0.0 0.0 0.00 0.00 0.00 89 1011.8
20260830220528 67 213 0.0 0.0 0.00 0.00 0.00 92 1011.0
20260830213541 67 213 0.0 0.0 0.00 0.00 0.00 92 1011.0
20260830210549 68 213 0.0 0.0 0.00 0.00 0.00 92 1010.5